Flag for Netherlands Weather past 2 weeks in Amersfoort, Netherlands

Now
57 °F

Passing clouds.


Feels Like: 55 °F
Forecast: 51 / 66 °F
Wind: 8 mph from Northwest

Location: Deelen

Current Time: Jul 30, 2015 at 9:10:38 PM

Latest Report: Jul 30, 2015 at 8:55 PM


Visibility: N/A

Pressure: 30.07 "Hg

Humidity: 63%

Dew point: 45 °F

Location of AmersfoortLocation

Historic Weather in Amersfoort — Graph

°F

Amersfoort temperature yesterday

Maximum temperature yesterday: 64 °F (at 2:55 PM)
Minimum temperature yesterday: 50 °F (at 10:25 AM)
Average temperature yesterday: 56 °F

Past Weeks' High & Low Weather Summary

 TemperatureHumidityPressure
High79 °F (Jul 17, 1:25 PM)100% (Jul 15, 9:55 PM)30.12 "Hg (Jul 15, 9:55 PM)
Low46 °F (Jul 26, 4:25 AM)40% (Jul 23, 4:25 PM)29.45 "Hg (Jul 25, 6:25 AM)
Average63 °F79%29.85 "Hg
* Reported Jul 15 7:25 PM — Jul 30 7:55 PM, Amersfoort, Weather by CustomWeather, © 2015

Note: Actual official high and low records may vary slightly from our data, if they occured in-between our weather recording intervals... More about our weather records

Advertising

Amersfoort weather history for previous 24 hours

 ConditionsComfort  
Time TempWeatherWind HumidityBarometerVisibility
7:55 PM
Thu, Jul 30
61 °FPartly sunny.13 mph55%30.04 "HgN/A
7:25 PM61 °FMore clouds than sun.12 mph59%30.04 "HgN/A
6:55 PM61 °FPassing clouds.10 mph55%30.04 "HgN/A
6:25 PM63 °FScattered clouds.16 mph56%30.01 "HgN/A
5:55 PM63 °FOvercast.13 mph52%30.01 "HgN/A
5:25 PM61 °FBroken clouds.10 mph63%30.01 "HgN/A
4:55 PM63 °FPartly sunny.8 mph56%30.01 "HgN/A
4:25 PM61 °FBroken clouds.9 mph72%30.01 "HgN/A
3:55 PM59 °FMostly cloudy.8 mph82%30.01 "HgN/A
3:25 PM59 °FOvercast.8 mph82%30.01 "HgN/A
2:55 PM61 °FScattered clouds.10 mph83%29.98 "HgN/A
2:25 PM57 °FMostly cloudy.9 mph94%29.98 "HgN/A
1:55 PM55 °FBroken clouds.10 mph94%29.98 "HgN/A
1:25 PM55 °FBroken clouds.10 mph88%29.98 "HgN/A
12:55 PM61 °FMostly cloudy.12 mph72%29.95 "HgN/A
12:25 PM61 °FBroken clouds.8 mph72%29.95 "HgN/A
11:55 AM61 °FBroken clouds.7 mph77%29.95 "HgN/A
11:25 AM55 °FBroken clouds.5 mph94%29.95 "HgN/A
10:55 AM55 °FOvercast.8 mph88%29.95 "HgN/A
10:25 AM59 °FBroken clouds.9 mph72%29.95 "HgN/A
9:55 AM59 °FBroken clouds.10 mph72%29.92 "HgN/A
9:25 AM59 °FPassing clouds.7 mph72%29.92 "HgN/A
8:55 AM57 °FPassing clouds.8 mph82%29.92 "HgN/A
8:25 AM55 °FPassing clouds.7 mph88%29.92 "HgN/A
7:55 AM54 °FPassing clouds.8 mph88%29.92 "HgN/A
7:25 AM52 °FPassing clouds.7 mph94%29.92 "HgN/A
6:55 AM48 °FSunny.7 mph100%29.92 "HgN/A
6:25 AM48 °FPassing clouds.6 mph94%29.89 "HgN/A
5:55 AM48 °FClear.6 mph94%29.89 "HgN/A
5:25 AM48 °FPassing clouds.6 mph94%29.89 "HgN/A
4:55 AM48 °FPassing clouds.7 mph94%29.89 "HgN/A
4:25 AM48 °FPassing clouds.7 mph94%29.89 "HgN/A
3:55 AM48 °FPassing clouds.7 mph100%29.89 "HgN/A
3:25 AM50 °FPassing clouds.8 mph94%29.89 "HgN/A
2:55 AM50 °FPassing clouds.7 mph94%29.89 "HgN/A
2:25 AM50 °FPassing clouds.7 mph94%29.89 "HgN/A
1:55 AM50 °FClear.7 mph94%29.89 "HgN/A
1:25 AM50 °FClear.7 mph94%29.89 "HgN/A
12:55 AM52 °FPassing clouds.7 mph88%29.89 "HgN/A
12:25 AM52 °FPassing clouds.7 mph88%29.86 "HgN/A
11:55 PM
Wed, Jul 29
52 °FPassing clouds.8 mph88%29.86 "HgN/A
11:25 PM52 °FClear.8 mph88%29.86 "HgN/A
10:55 PM54 °FClear.7 mph82%29.86 "HgN/A
10:25 PM55 °FSunny.9 mph77%29.86 "HgN/A
9:55 PM57 °FPassing clouds.10 mph72%29.86 "HgN/A
9:25 PM57 °FPassing clouds.12 mph72%29.83 "HgN/A
Weather by CustomWeather, © 2015

See weather overviewHow to use our weather pages